Flag for U.S.A. Weather past 2 weeks in Anchorage, Alaska, U.S.A.

Now
45 °F

Sunny.


Feels Like: 40 °F
Forecast: 49 / 58 °F
Wind: 10 mph from North

Location: Lake Hood Seaplane

Current Time: Aug 30, 2015 at 8:24:56 AM

Latest Report: Aug 30, 2015 at 7:53 AM


Visibility: 10 mi

Pressure: 29.34 "Hg

Humidity: 49%

Dew point: 27 °F

Location of AnchorageLocation

Historic Weather in Anchorage — Graph

°F

Anchorage temperature yesterday

Maximum temperature yesterday: 56 °F (at 4:53 PM)
Minimum temperature yesterday: 42 °F (at 5:53 AM)
Average temperature yesterday: 48 °F

Past Weeks' High & Low Weather Summary

 TemperatureHumidityPressure
High71 °F (Aug 18, 5:53 PM)100% (Aug 17, 7:00 AM)30.20 "Hg (Aug 17, 7:00 AM)
Low42 °F (Aug 29, 5:53 AM)27% (Aug 28, 2:53 PM)29.27 "Hg (Aug 29, 11:53 PM)
Average57 °F65%29.86 "Hg
* Reported Aug 15 6:53 AM — Aug 30 6:53 AM, Anchorage, Weather by CustomWeather, © 2015

Note: Actual official high and low records may vary slightly from our data, if they occured in-between our weather recording intervals... More about our weather records

Advertising

Anchorage weather history for previous 24 hours

 ConditionsComfort  
Time TempWeatherWind HumidityBarometerVisibility
6:53 AM
Sun, Aug 30
45 °FPassing clouds.7 mph48%29.33 "Hg10 mi
5:53 AM46 °FOvercast.9 mph50%29.32 "Hg10 mi
4:53 AM46 °FOvercast.8 mph44%29.32 "Hg10 mi
3:53 AM46 °FOvercast.13 mph44%29.30 "Hg10 mi
2:53 AM47 °FPassing clouds.10 mph46%29.30 "Hg10 mi
1:53 AM47 °FClear.14 mph54%29.29 "Hg10 mi
12:53 AM48 °FPassing clouds.10 mph59%29.28 "Hg10 mi
11:53 PM
Sat, Aug 29
48 °FClear.5 mph63%29.27 "Hg10 mi
10:53 PM46 °FPassing clouds.No wind73%29.28 "Hg10 mi
9:53 PM47 °FPassing clouds.No wind71%29.28 "Hg10 mi
8:53 PM50 °FMostly cloudy.12 mph63%29.29 "Hg10 mi
7:53 PM54 °FOvercast.10 mph47%29.28 "Hg10 mi
6:53 PM55 °FPartly sunny.9 mph49%29.29 "Hg10 mi
5:53 PM56 °FPartly sunny.No wind39%29.31 "Hg10 mi
4:53 PM56 °FOvercast.No wind37%29.32 "Hg10 mi
3:53 PM54 °FOvercast.No wind43%29.34 "Hg10 mi
2:53 PM53 °FOvercast.8 mph45%29.36 "Hg10 mi
1:53 PM51 °FOvercast.5 mph46%29.37 "Hg10 mi
12:53 PM49 °FOvercast.No wind48%29.38 "Hg10 mi
11:53 AM48 °FPartly sunny.6 mph56%29.39 "Hg10 mi
10:53 AM46 °FOvercast.3 mph63%29.41 "Hg10 mi
9:53 AM45 °FPartly sunny.3 mph65%29.43 "Hg10 mi
8:53 AM43 °FSunny.3 mph65%29.44 "Hg10 mi
Weather by CustomWeather, © 2015

See weather overviewHow to use our weather pages